User: anonymous   Login
Location: Columbia
(38.9520°N, 92.3340°W)
Time: 05:37:53
(UTC-06:00)
Language:

Meteor 1-4 Rocket - Orbit

View from above orbital plane
View from above orbital plane
View from above satellite
View from above satellite

Ground track
Ground track

The orbit data is extracted from the following two-line orbital elements,

1 04394U 70037B   14362.17698870  .00007723  00000-0  32194-3 0  7594
2 04394 081.2452 350.6675 0044684 316.2397 043.5296 15.22623689427201
Epoch (UTC): 28 December 2014 04:14:51
Eccentricity: 0.0044684
inclination: 81.2452°
perigee height: 467 km
apogee height: 528 km
right ascension of ascending node: 350.6675°
argument of perigee: 316.2397°
revolutions per day: 15.22623689
mean anomaly at epoch: 43.5296°
orbit number at epoch: 42720

The dashed part of the orbit path shows where the satellite is in the earth's shadow,  

DLR